Tracking 25703 objects as of 3-Jul-2022
HD Live streaming from Space Station
objects crossing your sky now

INTELSAT 901

Track INTELSAT 901 now!
INTELSAT 901 is classified as:


NORAD ID: 26824
Int'l Code: 2001-024A
Perigee: 35,790.4 km
Apogee: 35,797.8 km
Inclination: 0.0 °
Period: 1,436.1 minutes
Semi major axis: 42165 km
RCS: 15.9919 m2 (large)
Launch date: June 9, 2001
Source: International Telecommunications Satellite Organization (ITSO)
Launch site: FRENCH GUIANA (FRGUI)

INTELSAT 901 is a 4.7 ton (with fuel) geosynchronous communications spacecraft providing voice and video services to Europe and the Americas through 44 C-band and 12 Ku-band transponders.
aabbcc
Your satellite tracking list
Your tracking list is empty




NASA's NSSDC Master Catalog

Two Line Element Set (TLE):
1 26824U 01024A   22183.42415365 -.00000193  00000-0  00000-0 0  9999
2 26824   0.0140 309.7704 0000871 196.9365 258.9497  1.00270504 77090
Source of the keplerian elements: AFSPC